Weather History for Hill City, KS

Change the Weather History Date:

Thursday, January 16, 2014

  Actual Average Record
Temperature  
Mean Temperature 39 °F 29 °F  
Max Temperature 50 °F 42 °F 71 °F (2006)
Min Temperature 28 °F 17 °F -15 °F (1930)
Degree Days  
Heating Degree Days 26    
Moisture  
Dew Point 13 °F    
Average Humidity 37    
Maximum Humidity 55    
Minimum Humidity 14    
Precipitation  
Precipitation 0.00 in 0.01 in 0.00 in (2015)
Month to date precipitation 0.03 0.15  
Year to date precipitation 0.03 0.15  
Sea Level Pressure  
Sea Level Pressure 30.10 in    
Wind  
Wind Speed 18 mph (NW)    
Max Wind Speed 39 mph    
Max Gust Speed 51 mph    
Visibility 10 miles    
Events      
T = Trace of Precipitation, MM = Missing Value Source: NWS Daily Summary

Daily Weather History Graph

Daily Weather History Graph

Search for Another Location

Airport:

Trip Planner

Search our weather history database for the weather conditions in past years. The results will help you decide how hot, cold, wet, or windy it might be!

Date:

Astronomy

Jan. 16, 2014 Rise Set
Actual Time 7:57 AM CST 5:41 PM CST
Civil Twilight 7:27 AM CST 6:10 PM CST
Nautical Twilight 6:54 AM CST 6:43 PM CST
Astronomical Twilight 6:22 AM CST 7:15 PM CST
Moon 6:34 PM CST (1/16) 7:52 AM CST (1/16)
Length of Visible Light 10h 42m
Length of Day
9h 44m
Full, 100% of the Moon is Illuminated
Jan 16
Full
Jan 23
Last Quarter
Jan 30
New
Feb 6
First Quarter
Feb 14
Full

Hourly Weather History & Observations

Time (CST) Temp. Windchill Dew Point Humidity Pressure Visibility Wind Dir Wind Speed Gust Speed Precip Events Conditions
12:53 AM 37.9 °F 32.1 °F 19.9 °F 48% 29.94 in 10.0 mi West 8.1 mph - N/A   Clear
1:53 AM 41.0 °F 33.1 °F 21.0 °F 45% 29.96 in 10.0 mi NW 15.0 mph - N/A   Clear
2:53 AM 39.0 °F 31.4 °F 19.9 °F 46% 29.97 in 10.0 mi NW 12.7 mph 19.6 mph N/A   Clear
3:53 AM 36.0 °F 27.1 °F 19.9 °F 52% 30.00 in 10.0 mi NNW 13.8 mph - N/A   Clear
4:53 AM 36.0 °F 27.1 °F 21.0 °F 55% 30.04 in 10.0 mi NNW 13.8 mph - N/A   Clear
5:53 AM 37.9 °F 29.2 °F 21.9 °F 53% 30.02 in 10.0 mi WNW 15.0 mph 25.3 mph N/A   Scattered Clouds
6:53 AM 39.9 °F 30.8 °F 23.0 °F 51% 30.04 in 10.0 mi WNW 18.4 mph 27.6 mph N/A   Mostly Cloudy
7:53 AM 37.0 °F 28.5 °F 21.9 °F 54% 30.08 in 10.0 mi WNW 13.8 mph - N/A   Clear
8:53 AM 39.9 °F 30.2 °F 21.0 °F 47% 30.09 in 10.0 mi NW 20.7 mph 27.6 mph N/A   Clear
9:53 AM 43.0 °F 34.0 °F 18.0 °F 37% 30.11 in 10.0 mi NW 21.9 mph 38.0 mph N/A   Clear
10:53 AM 45.0 °F 35.8 °F 15.1 °F 30% 30.11 in 10.0 mi NW 26.5 mph 42.6 mph N/A   Clear
11:53 AM 46.9 °F - 10.9 °F 23% 30.08 in 10.0 mi NW 26.5 mph 43.7 mph N/A   Clear
12:53 PM 48.9 °F - 7.0 °F 18% 30.06 in 10.0 mi NNW 31.1 mph 46.0 mph N/A   Mostly Cloudy
1:53 PM 48.9 °F - 1.0 °F 14% 30.04 in 7.0 mi NNW 39.1 mph 50.6 mph N/A   Overcast
2:53 PM 48.9 °F - 1.0 °F 14% 30.05 in 9.0 mi NNW 35.7 mph 47.2 mph N/A   Overcast
3:53 PM 46.9 °F - 1.0 °F 15% 30.08 in 10.0 mi NNW 33.4 mph 50.6 mph N/A   Overcast
4:53 PM 45.0 °F 35.4 °F 1.9 °F 17% 30.10 in 10.0 mi NNW 28.8 mph 36.8 mph N/A   Overcast
5:53 PM 41.0 °F 31.9 °F 5.0 °F 23% 30.13 in 10.0 mi NNW 19.6 mph 29.9 mph N/A   Clear
6:53 PM 36.0 °F 27.5 °F 8.1 °F 31% 30.18 in 10.0 mi North 12.7 mph - N/A   Clear
7:53 PM 35.1 °F 23.5 °F 10.9 °F 37% 30.22 in 10.0 mi North 21.9 mph 28.8 mph N/A   Clear
8:53 PM 33.1 °F 20.1 °F 12.0 °F 42% 30.23 in 10.0 mi North 25.3 mph 34.5 mph N/A   Clear
9:53 PM 32.0 °F 20.1 °F 10.9 °F 42% 30.25 in 10.0 mi NNW 19.6 mph 33.4 mph N/A   Clear
10:53 PM 30.0 °F 19.1 °F 10.9 °F 45% 30.27 in 10.0 mi NW 15.0 mph - N/A   Clear
11:53 PM 28.9 °F 17.7 °F 12.0 °F 49% 30.27 in 10.0 mi NW 15.0 mph - N/A   Clear